ROMMA est une association bénévole à but non lucratif. Votre soutien est indispensable : ADHERER à ROMMA ou FAIRE un DON

Le Versoud - (38, Isère)

Vallée du Grésivaudan (220 m)   Longitude: 05° 51' 44" E   Latitude: 45° 13' 06" N Station partenaire n°6
 

Détail journalier du     <<     >>

Température Humidité Pression Vent Dir Rafale Dir. rafale Ensol.
Heure (°C) (%) (hPa) (km/h) (km/h) (min)
01:00 9.894102300---0
02:00 8.995102300---0
03:00 8.695102300---0
04:00 8.495102200---0
05:00 7.796102200---0
06:00 7.496102200---0
07:00 7.096102200---0
08:00 6.996102200---0
09:00 7.496102200---0
10:00 12.390102300---60
11:00 14.781102202O55
12:00 16.474102102O25
13:00 17.867102003O45
14:00 18.863102006OSO50
15:00 19.959101902SO60
16:00 19.468101900---25
17:00 18.272101900---45
18:00 15.680101902O5
19:00 13.985102000---0
20:00 13.289102000---0
21:00 13.190102002O0
22:00 12.691102000---0
23:00 12.792101900---0
minuit 12.593101900---0

Graphique du 27-10-2019

 

Serveur OMMA